When you browse on this site, cookies collect data to enhance your experience and personalize the content and advertising you see.
Visit our Privacy Policy to learn more. By continuing to use the site, you agree to this use of cookies and data.
  • Em Portugal
  • Lista de países
  • Para 7 dias
  • Temperatura da água
  • Mapas de satélite
  • Mapa do tempo
  • Widgets de tempo
  • user-avatar
    Iniciar Sessão

    Previsão horária em Jordanki

    Hoje, 10 Dezembro, Segunda-feira

    Tempo Temperatura Precipitação Vento Pressão Humidade
    00:00 +4°C° 0 mm 4 m/s 742 mmHg 93%
    01:00 +3°C° 0 mm 4 m/s 742 mmHg 94%
    02:00 +3°C° 0.2 mm 4 m/s 742 mmHg 92%
    03:00 +3°C° 0.2 mm 5 m/s 743 mmHg 91%
    04:00 +3°C° 0.2 mm 5 m/s 743 mmHg 90%
    05:00 +3°C° 0.3 mm 5 m/s 743 mmHg 85%
    06:00 +2°C° 0.3 mm 6 m/s 744 mmHg 80%
    07:00 +2°C° 0.3 mm 6 m/s 744 mmHg 75%
    08:00 +2°C° 0 mm 6 m/s 745 mmHg 76%
    09:00 +2°C° 0 mm 6 m/s 745 mmHg 76%
    10:00 +2°C° 0 mm 6 m/s 746 mmHg 77%
    11:00 +3°C° 0 mm 6 m/s 746 mmHg 73%
    12:00 +3°C° 0 mm 6 m/s 746 mmHg 70%
    13:00 +3°C° 0 mm 6 m/s 747 mmHg 66%
    14:00 +3°C° 0 mm 5 m/s 747 mmHg 68%
    15:00 +2°C° 0 mm 5 m/s 747 mmHg 71%
    16:00 +1°C° 0 mm 4 m/s 748 mmHg 73%
    17:00 +1°C° 0 mm 4 m/s 748 mmHg 76%
    18:00 +1°C° 0 mm 4 m/s 748 mmHg 78%
    19:00 0°C° 0 mm 4 m/s 748 mmHg 80%
    20:00 0°C° 0 mm 4 m/s 748 mmHg 82%
    21:00 0°C° 0 mm 4 m/s 749 mmHg 84%
    22:00 -1°C° 0 mm 4 m/s 749 mmHg 86%
    23:00 0°C° 0 mm 3 m/s 749 mmHg 87%

    Amanhã, 11 Dezembro, Terça-feira

    Tempo Temperatura Precipitação Vento Pressão Humidade
    00:00 0°C° 0 mm 3 m/s 749 mmHg 88%
    01:00 0°C° 0 mm 3 m/s 749 mmHg 90%
    02:00 0°C° 0 mm 3 m/s 749 mmHg 90%
    03:00 0°C° 0 mm 3 m/s 749 mmHg 91%
    04:00 +1°C° 0 mm 2 m/s 749 mmHg 92%
    05:00 +1°C° 0 mm 2 m/s 750 mmHg 92%
    06:00 +1°C° 0 mm 2 m/s 750 mmHg 92%
    07:00 +1°C° 0 mm 2 m/s 751 mmHg 93%
    08:00 +1°C° 0 mm 2 m/s 751 mmHg 92%
    09:00 +1°C° 0 mm 2 m/s 752 mmHg 90%
    10:00 +2°C° 0 mm 2 m/s 752 mmHg 89%
    11:00 +2°C° 0 mm 2 m/s 753 mmHg 87%
    12:00 +2°C° 0 mm 2 m/s 753 mmHg 84%
    13:00 +3°C° 0 mm 2 m/s 753 mmHg 82%
    14:00 +2°C° 0 mm 2 m/s 754 mmHg 85%
    15:00 +1°C° 0 mm 2 m/s 755 mmHg 87%
    16:00 +1°C° 0 mm 2 m/s 755 mmHg 90%
    17:00 +1°C° 0 mm 2 m/s 756 mmHg 91%
    18:00 -1°C° 0 mm 2 m/s 756 mmHg 91%
    19:00 -1°C° 0 mm 2 m/s 756 mmHg 92%
    20:00 -1°C° 0 mm 2 m/s 757 mmHg 92%
    21:00 -1°C° 0 mm 2 m/s 757 mmHg 91%
    22:00 -1°C° 0 mm 2 m/s 758 mmHg 91%
    23:00 +1°C° 0 mm 1 m/s 758 mmHg 91%

    Depois de amanhã, 12 Dezembro, Quarta-feira

    Tempo Temperatura Precipitação Vento Pressão Humidade
    00:00 +1°C° 0 mm 1 m/s 759 mmHg 91%
    01:00 +1°C° 0 mm 1 m/s 759 mmHg 91%
    02:00 +1°C° 0.1 mm 1 m/s 759 mmHg 91%
    03:00 +1°C° 0.1 mm 1 m/s 759 mmHg 92%
    04:00 +1°C° 0.1 mm 1 m/s 760 mmHg 92%
    05:00 +1°C° 0.1 mm 1 m/s 760 mmHg 92%
    06:00 +1°C° 0.1 mm 1 m/s 760 mmHg 92%
    07:00 +1°C° 0.1 mm 1 m/s 761 mmHg 93%
    08:00 +1°C° 0 mm 1 m/s 761 mmHg 91%
    09:00 +1°C° 0 mm 2 m/s 761 mmHg 90%
    10:00 +1°C° 0 mm 2 m/s 762 mmHg 89%
    11:00 +1°C° 0 mm 2 m/s 762 mmHg 87%
    12:00 +1°C° 0 mm 2 m/s 762 mmHg 86%
    13:00 +2°C° 0 mm 2 m/s 762 mmHg 85%
    14:00 +1°C° 0 mm 2 m/s 762 mmHg 88%
    15:00 +1°C° 0 mm 2 m/s 762 mmHg 90%
    16:00 -1°C° 0 mm 2 m/s 762 mmHg 93%
    17:00 0°C° 0.1 mm 3 m/s 763 mmHg 93%
    18:00 0°C° 0.1 mm 3 m/s 763 mmHg 93%
    19:00 0°C° 0.1 mm 3 m/s 763 mmHg 93%
    20:00 0°C° 0 mm 3 m/s 763 mmHg 92%
    21:00 0°C° 0 mm 3 m/s 763 mmHg 92%
    22:00 -1°C° 0 mm 3 m/s 764 mmHg 92%
    23:00 -1°C° 0 mm 3 m/s 764 mmHg 92%

    13 Dezembro, Quinta-feira

    Tempo Temperatura Precipitação Vento Pressão Humidade
    00:00 -1°C° 0 mm 3 m/s 764 mmHg 93%
    01:00 -1°C° 0 mm 3 m/s 764 mmHg 93%
    02:00 -1°C° 0 mm 3 m/s 764 mmHg 93%
    03:00 -1°C° 0 mm 3 m/s 764 mmHg 93%
    04:00 -1°C° 0 mm 3 m/s 764 mmHg 93%
    05:00 -1°C° 0 mm 3 m/s 764 mmHg 91%
    06:00 -1°C° 0 mm 3 m/s 764 mmHg 90%
    07:00 -1°C° 0 mm 3 m/s 764 mmHg 88%
    08:00 -1°C° 0 mm 3 m/s 764 mmHg 87%
    09:00 -1°C° 0 mm 3 m/s 764 mmHg 86%
    10:00 0°C° 0 mm 3 m/s 764 mmHg 84%
    11:00 0°C° 0 mm 3 m/s 763 mmHg 83%
    12:00 0°C° 0 mm 3 m/s 763 mmHg 81%
    13:00 0°C° 0 mm 3 m/s 763 mmHg 80%
    14:00 0°C° 0 mm 3 m/s 763 mmHg 81%
    15:00 -1°C° 0 mm 3 m/s 762 mmHg 83%
    16:00 -1°C° 0 mm 2 m/s 762 mmHg 84%
    17:00 -1°C° 0 mm 3 m/s 762 mmHg 85%
    18:00 -1°C° 0 mm 3 m/s 762 mmHg 86%
    19:00 -1°C° 0 mm 3 m/s 762 mmHg 86%
    20:00 -1°C° 0 mm 3 m/s 762 mmHg 87%
    21:00 -1°C° 0 mm 3 m/s 762 mmHg 87%
    22:00 -1°C° 0 mm 3 m/s 762 mmHg 87%
    23:00 -2°C° 0 mm 2 m/s 762 mmHg 87%

    14 Dezembro, Sexta-feira

    Tempo Temperatura Precipitação Vento Pressão Humidade
    00:00 -2°C° 0 mm 2 m/s 762 mmHg 88%
    01:00 -2°C° 0 mm 2 m/s 762 mmHg 88%
    02:00 -2°C° 0 mm 2 m/s 762 mmHg 88%
    03:00 -2°C° 0 mm 2 m/s 762 mmHg 89%
    04:00 -2°C° 0 mm 2 m/s 762 mmHg 89%
    05:00 -2°C° 0 mm 2 m/s 762 mmHg 89%
    06:00 -2°C° 0 mm 2 m/s 762 mmHg 89%
    07:00 -2°C° 0 mm 2 m/s 763 mmHg 90%
    08:00 -2°C° 0 mm 2 m/s 763 mmHg 88%
    09:00 -1°C° 0 mm 3 m/s 763 mmHg 87%
    10:00 -1°C° 0 mm 3 m/s 763 mmHg 86%
    11:00 -1°C° 0 mm 3 m/s 763 mmHg 84%
    12:00 0°C° 0 mm 3 m/s 763 mmHg 83%
    13:00 0°C° 0 mm 3 m/s 764 mmHg 82%
    14:00 0°C° 0 mm 3 m/s 764 mmHg 83%
    15:00 -1°C° 0 mm 3 m/s 764 mmHg 85%
    16:00 -1°C° 0 mm 3 m/s 764 mmHg 86%
    17:00 -1°C° 0 mm 3 m/s 764 mmHg 86%
    18:00 -1°C° 0 mm 3 m/s 764 mmHg 86%
    19:00 -1°C° 0 mm 3 m/s 764 mmHg 86%
    20:00 -1°C° 0 mm 3 m/s 764 mmHg 86%
    21:00 -2°C° 0 mm 3 m/s 764 mmHg 87%
    22:00 -2°C° 0 mm 3 m/s 764 mmHg 87%
    23:00 -2°C° 0 mm 3 m/s 764 mmHg 87%

    15 Dezembro, Sábado

    Tempo Temperatura Precipitação Vento Pressão Humidade
    00:00 -2°C° 0 mm 3 m/s 764 mmHg 87%
    01:00 -2°C° 0 mm 3 m/s 765 mmHg 86%
    02:00 -2°C° 0 mm 3 m/s 765 mmHg 86%
    03:00 -1°C° 0 mm 3 m/s 765 mmHg 87%
    04:00 -1°C° 0 mm 3 m/s 765 mmHg 87%
    05:00 -2°C° 0 mm 3 m/s 765 mmHg 87%
    06:00 -2°C° 0 mm 3 m/s 765 mmHg 87%
    07:00 -2°C° 0 mm 3 m/s 765 mmHg 87%
    08:00 -2°C° 0 mm 3 m/s 766 mmHg 85%
    09:00 -2°C° 0 mm 4 m/s 766 mmHg 83%
    10:00 -2°C° 0 mm 4 m/s 766 mmHg 82%
    11:00 -2°C° 0 mm 4 m/s 766 mmHg 79%
    12:00 -2°C° 0 mm 4 m/s 766 mmHg 77%
    13:00 -2°C° 0 mm 4 m/s 766 mmHg 74%
    14:00 -1°C° 0 mm 3 m/s 766 mmHg 76%
    15:00 -1°C° 0 mm 3 m/s 766 mmHg 78%
    16:00 -1°C° 0 mm 3 m/s 766 mmHg 79%
    17:00 -2°C° 0 mm 3 m/s 766 mmHg 81%
    18:00 -2°C° 0 mm 3 m/s 766 mmHg 83%
    19:00 -2°C° 0 mm 3 m/s 766 mmHg 86%
    20:00 -4°C° 0 mm 3 m/s 766 mmHg 87%
    21:00 -4°C° 0 mm 3 m/s 766 mmHg 88%
    22:00 -4°C° 0 mm 3 m/s 766 mmHg 90%
    23:00 -4°C° 0 mm 3 m/s 766 mmHg 90%
    Mostrar mais